Back to catalog

STARLINK-33945

AliveCommunicationsSSO
NORAD 64154·PAYLOAD·🇺🇸 United States

Launched May 27, 2025 from Vandenberg Space Force Base

Loading…

Next Passes (next 24 hours)

TLE

FreshSource: CelesTrak SupGP

Epoch: Sep 14, 2026, 22:31 UTC

1 64154C 25112J   26257.93868056  .00021000  00000+0  65214-3 0  2578
2 64154  97.2842 312.7552 0001502  85.7552 181.9304 15.33415872    15

Track STARLINK-33945 in real time with AllMySat

Download on the App Store